Home > Weather > Independence > Past weeks

Flag for USA Past Weather in Independence, Missouri, USA — Yesterday and Last 2 Weeks

Now
81 °F

Sunny.


Feels Like: 83 °F
Forecast: 71 / 86 °F
Wind: 6 mph from Southeast

Location: Lee's Summit Municipal Airport

Current Time: Jun 28, 2016 at 5:48:46 PM

Latest Report: Jun 28, 2016 at 4:53 PM


Visibility: 10 mi

Pressure: 30.11 "Hg

Humidity: 58%

Dew Point: 65 °F

Location of IndependenceLocation

Past Weather in Independence — Graph

°F

Independence Temperature Yesterday

Maximum temperature yesterday: 92 °F (at 5:53 PM)
Minimum temperature yesterday: 70 °F (at 4:00 AM)
Average temperature yesterday: 80 °F

High & Low Weather Summary for the Past Weeks

 TemperatureHumidityPressure
High99 °F (Jun 22, 4:53 PM)97% (Jun 27, 5:00 AM)30.26 "Hg (Jun 27, 5:00 AM)
Low67 °F (Jun 28, 11:03 AM)23% (Jun 15, 6:53 PM)29.67 "Hg (Jun 14, 6:53 PM)
Average83 °F62%29.97 "Hg
* Reported Jun 13 3:53 PM — Jun 28 3:53 PM, Independence, Weather by CustomWeather, © 2016

Note: Actual official high and low records may vary slightly from our data, if they occured in-between our weather recording intervals... More about our weather records

Advertising

Independence Weather History for the Previous 24 Hours

Scroll right to see more
 ConditionsComfort  
Time TempWeatherWind HumidityBarometerVisibility
3:53 PM
Tue, Jun 28
81 °FSunny.9 mph58%30.15 "Hg10 mi
2:53 PM82 °FSunny.6 mph53%30.15 "Hg10 mi
1:53 PM76 °FSunny.No wind69%30.16 "Hg10 mi
12:53 PM69 °FScattered clouds.7 mph84%30.16 "Hg10 mi
11:53 AM67 °FScattered clouds.13 mph87%30.19 "Hg10 mi
11:03 AM67 °FThundershowers. Overcast.10 mph87%30.26 "Hg10 mi
9:53 AM73 °FThundershowers. Partly sunny.8 mph69%30.23 "Hg10 mi
8:53 AM74 °FPassing clouds.10 mph71%30.18 "Hg10 mi
7:53 AM74 °FSunny.14 mph74%30.16 "Hg10 mi
6:53 AM74 °FPassing clouds.10 mph79%30.15 "Hg10 mi
5:53 AM71 °FClear.6 mph90%30.12 "Hg10 mi
4:53 AM73 °FClear.3 mph88%30.11 "Hg10 mi
3:53 AM73 °FClear.7 mph88%30.10 "Hg10 mi
2:53 AM74 °FClear.3 mph85%30.10 "Hg10 mi
1:53 AM77 °FClear.No wind77%30.10 "Hg10 mi
12:53 AM77 °FClear.3 mph77%30.11 "Hg10 mi
11:53 PM
Mon, Jun 27
79 °FClear.3 mph72%30.11 "Hg10 mi
10:53 PM82 °FClear.6 mph63%30.11 "Hg10 mi
9:53 PM82 °FClear.5 mph63%30.10 "Hg10 mi
8:53 PM84 °FSunny.8 mph61%30.07 "Hg10 mi
7:53 PM86 °FSunny.6 mph57%30.08 "Hg10 mi
6:53 PM90 °FSunny.9 mph50%30.06 "Hg10 mi
5:53 PM92 °FSunny.6 mph41%30.06 "Hg10 mi
Weather by CustomWeather, © 2016

See weather overviewHow to use our weather pages